Location: Unspecified
(0.0000°N, 0.0000°E)
Time: 03:53:52
(UTC+00:00)

ARIANE 6 FM1 Upper Stage - Visible Passes

Search period start: 19 February 2026 00:00
Search period end: 01 March 2026 00:00
Orbit: 522 x 608 km, 62.0° (Epoch: 18 February)

Date Brightness Start Highest point End Pass type
(mag) Time Alt. Az. Time Alt. Az. Time Alt. Az.
21 Feb 4.4 19:28:48 10° N 19:30:04 18° NNE 19:30:04 18° NNE visible
22 Feb 2.5 19:28:21 10° NNW 19:32:19 59° ENE 19:33:12 46° ESE visible
23 Feb 2.7 19:28:10 10° NNW 19:32:12 76° WSW 19:36:22 10° SSE visible
24 Feb 3.9 19:28:17 10° NW 19:32:06 41° WSW 19:36:02 10° S visible
25 Feb 5.1 19:28:44 10° WNW 19:32:00 23° WSW 19:35:21 10° S visible
26 Feb 5.8 19:29:47 10° W 19:31:55 14° WSW 19:34:06 10° SSW visible
